contact:dominique.lefevre@mio.osupytheas.fr, maurice.libes@osupytheas.fr
Project:EMSO Ligure-ouest http://www.emso-fr.org/EMSO-France
Sensor Aquadopp, line 04 Serial AQD8517 
DOI : "https://doi.org/10.17882/74513; https://doi.org/10.17882/83244" 
Title:EMSO Ligure Ouest : Data ligne ALBATROSS capteur AQUADOPP - deploiement 2021
Id,Date,Profondeur,Latitude,Longitude,X_East,Y_North,Z_Up,Amplitude_X,Amplitude_Y,Amplitude_Z,Batterie,SoundSpeed,Heading,Pitch,Roll,Pressure,Temperature,Speed,Direction
, , m, degrees North, degrees East, m.s-1, m.s-1,m.s-1, 1, 1, 1, Volt, m.s-1, degree, degree, degree, dbar, degree_C, m.s-1, degree
04,2022-03-04T01:30:00,1000.0,42.79,6.0312,-0.032,-0.004,-0.003,68.0,70.0,65.0,12.3,1504.7,305.8,-0.6,-0.4,967.245,13.29,0.032,262.9
04,2022-03-04T02:00:00,1000.0,42.79,6.0312,-0.024,0.003,-0.003,67.0,69.0,66.0,12.3,1504.7,307.9,-0.6,-0.4,967.241,13.29,0.024,277.1
04,2022-03-04T02:30:00,1000.0,42.79,6.0312,-0.021,0.001,0.001,67.0,68.0,66.0,12.3,1504.7,308.9,-0.6,-0.4,967.23,13.3,0.021,272.7
04,2022-03-04T03:00:00,1000.0,42.79,6.0312,-0.007,0.002,0.018,66.0,69.0,67.0,12.3,1504.7,315.0,-0.6,-0.5,967.225,13.3,0.007,285.9
04,2022-03-04T03:30:00,1000.0,42.79,6.0312,-0.02,0.02,0.002,66.0,68.0,66.0,12.3,1504.7,319.5,-0.6,-0.4,967.238,13.29,0.028,315.0
04,2022-03-04T04:00:00,1000.0,42.79,6.0312,-0.01,0.02,-0.003,65.0,68.0,65.0,12.3,1504.7,324.0,-0.5,-0.4,967.215,13.29,0.022,333.4
04,2022-03-04T04:30:00,1000.0,42.79,6.0312,-0.016,0.009,0.01,66.0,69.0,65.0,12.3,1504.7,323.9,-0.5,-0.4,967.293,13.29,0.018,299.4
04,2022-03-04T05:00:00,1000.0,42.79,6.0312,-0.008,0.018,-0.014,66.0,69.0,67.0,12.3,1504.7,323.2,-0.5,-0.4,967.303,13.3,0.019,336.0
04,2022-03-04T05:30:00,1000.0,42.79,6.0312,-0.008,0.031,0.013,66.0,71.0,65.0,12.3,1504.7,322.2,-0.5,-0.4,967.338,13.3,0.032,345.5
04,2022-03-04T06:00:00,1000.0,42.79,6.0312,0.001,0.024,-0.005,66.0,69.0,64.0,12.3,1504.7,320.9,-0.5,-0.4,967.407,13.3,0.024,2.4
04,2022-03-04T06:30:00,1000.0,42.79,6.0312,0.017,0.024,0.0,68.0,70.0,66.0,12.3,1504.7,320.3,-0.5,-0.4,967.41,13.29,0.029,35.3
04,2022-03-04T07:00:00,1000.0,42.79,6.0312,0.007,0.017,0.004,65.0,68.0,66.0,12.3,1504.7,317.0,-0.6,-0.4,967.456,13.29,0.018,22.4
04,2022-03-04T07:30:00,1000.0,42.79,6.0312,0.013,0.01,0.011,66.0,70.0,65.0,12.3,1504.7,316.4,-0.5,-0.5,967.494,13.29,0.016,52.4
04,2022-03-04T08:00:00,1000.0,42.79,6.0312,0.014,0.008,-0.004,66.0,70.0,65.0,12.3,1504.7,315.6,-0.5,-0.5,967.506,13.29,0.016,60.3
04,2022-03-04T08:30:00,1000.0,42.79,6.0312,0.012,0.01,-0.013,66.0,69.0,66.0,12.3,1504.7,321.2,-0.6,-0.4,967.525,13.29,0.015,50.2
04,2022-03-04T09:00:00,1000.0,42.79,6.0312,0.019,0.012,-0.001,66.0,69.0,65.0,12.3,1504.7,320.3,-0.6,-0.4,967.536,13.29,0.022,57.7
04,2022-03-04T09:30:00,1000.0,42.79,6.0312,0.002,0.0,-0.002,68.0,70.0,67.0,12.3,1504.7,318.5,-0.5,-0.4,967.534,13.3,0.002,90.0
04,2022-03-04T10:00:00,1000.0,42.79,6.0312,0.011,0.008,0.002,66.0,68.0,66.0,12.3,1504.8,322.1,-0.5,-0.4,967.526,13.31,0.013,54.0
04,2022-03-04T10:30:00,1000.0,42.79,6.0312,0.002,0.006,-0.012,65.0,69.0,66.0,12.3,1504.8,325.4,-0.5,-0.4,967.49,13.31,0.006,18.4
04,2022-03-04T11:00:00,1000.0,42.79,6.0312,0.01,0.0,0.009,66.0,69.0,65.0,12.3,1504.8,326.1,-0.5,-0.4,967.488,13.31,0.01,90.0
04,2022-03-04T11:30:00,1000.0,42.79,6.0312,0.01,0.0,0.004,64.0,69.0,65.0,12.3,1504.8,324.0,-0.5,-0.4,967.404,13.31,0.01,90.0
04,2022-03-04T12:00:00,1000.0,42.79,6.0312,0.002,-0.008,0.007,67.0,69.0,67.0,12.3,1504.7,322.9,-0.5,-0.4,967.4,13.3,0.008,166.0
04,2022-03-04T12:30:00,1000.0,42.79,6.0312,0.005,-0.008,0.004,69.0,69.0,65.0,12.3,1504.7,323.3,-0.5,-0.4,967.384,13.29,0.009,148.0
04,2022-03-04T13:00:00,1000.0,42.79,6.0312,-0.006,-0.012,0.001,68.0,69.0,64.0,12.3,1504.7,318.8,-0.5,-0.4,967.338,13.29,0.013,206.6
04,2022-03-04T13:30:00,1000.0,42.79,6.0312,0.004,-0.01,-0.003,68.0,67.0,65.0,12.3,1504.7,314.1,-0.5,-0.4,967.301,13.3,0.01,158.2
04,2022-03-04T14:00:00,1000.0,42.79,6.0312,0.0,-0.005,-0.011,70.0,69.0,65.0,12.3,1504.7,309.9,-0.5,-0.4,967.275,13.3,0.005,180.0
04,2022-03-04T14:30:00,1000.0,42.79,6.0312,-0.007,-0.007,0.011,68.0,68.0,66.0,12.3,1504.8,306.4,-0.5,-0.4,967.273,13.31,0.009,225.0
04,2022-03-04T15:00:00,1000.0,42.79,6.0312,-0.002,-0.008,-0.008,66.0,67.0,67.0,12.3,1504.7,305.4,-0.5,-0.4,967.292,13.3,0.008,194.0
04,2022-03-04T15:30:00,1000.0,42.79,6.0312,-0.011,-0.025,0.006,68.0,69.0,66.0,12.3,1504.7,304.4,-0.5,-0.4,967.269,13.3,0.027,203.7
04,2022-03-04T16:00:00,1000.0,42.79,6.0312,-0.016,-0.014,0.021,66.0,68.0,66.0,12.3,1504.7,306.2,-0.5,-0.4,967.257,13.3,0.021,228.8
04,2022-03-04T16:30:00,1000.0,42.79,6.0312,-0.028,-0.016,-0.011,67.0,68.0,65.0,12.3,1504.7,308.5,-0.5,-0.4,967.297,13.3,0.032,240.3
04,2022-03-04T17:00:00,1000.0,42.79,6.0312,-0.019,0.002,-0.008,65.0,68.0,65.0,12.3,1504.7,311.5,-0.5,-0.4,967.341,13.3,0.019,276.0
04,2022-03-04T17:30:00,1000.0,42.79,6.0312,-0.029,0.002,-0.002,68.0,68.0,66.0,12.3,1504.8,311.4,-0.6,-0.4,967.336,13.31,0.029,273.9
04,2022-03-04T18:00:00,1000.0,42.79,6.0312,-0.016,0.002,0.003,65.0,69.0,66.0,12.3,1504.8,314.1,-0.5,-0.4,967.36,13.31,0.016,277.1
04,2022-03-04T18:30:00,1000.0,42.79,6.0312,-0.026,0.009,-0.002,68.0,70.0,66.0,12.3,1504.8,316.3,-0.5,-0.4,967.383,13.31,0.027,289.1
04,2022-03-04T19:00:00,1000.0,42.79,6.0312,-0.012,0.01,0.007,67.0,68.0,64.0,12.3,1504.8,313.7,-0.5,-0.4,967.373,13.31,0.015,309.8
04,2022-03-04T19:30:00,1000.0,42.79,6.0312,-0.027,0.015,0.009,67.0,68.0,66.0,12.3,1504.7,317.0,-0.6,-0.4,967.403,13.3,0.03,299.1
04,2022-03-04T20:00:00,1000.0,42.79,6.0312,-0.027,0.015,-0.007,67.0,70.0,66.0,12.3,1504.7,315.9,-0.6,-0.4,967.444,13.29,0.03,299.1
04,2022-03-04T20:30:00,1000.0,42.79,6.0312,-0.023,0.019,0.006,66.0,68.0,64.0,12.3,1504.7,317.9,-0.6,-0.4,967.429,13.29,0.029,309.6
04,2022-03-04T21:00:00,1000.0,42.79,6.0312,-0.024,0.019,-0.014,65.0,68.0,65.0,12.3,1504.7,318.4,-0.6,-0.4,967.449,13.29,0.03,308.4
